TimeCDT,TemperatureF,Dew PointF,Humidity,Sea Level PressureIn,VisibilityMPH,Wind Direction,Wind SpeedMPH,Gust SpeedMPH,PrecipitationIn,Events,Conditions,WindDirDegrees,DateUTC
12:51 AM,82.9,53.1,36,29.86,10.0,South,6.9,-,N/A,,Clear,170,2012-09-07 05:51:00
1:51 AM,81.0,51.1,35,29.85,10.0,South,8.1,-,N/A,,Clear,190,2012-09-07 06:51:00
2:51 AM,78.8,50.0,36,29.93,10.0,South,8.1,-,N/A,,Clear,190,2012-09-07 07:51:00
3:51 AM,75.0,50.0,41,29.84,10.0,SSW,5.8,-,N/A,,Clear,200,2012-09-07 08:51:00
4:51 AM,78.1,52.0,40,29.83,10.0,South,11.5,19.6,N/A,,Clear,180,2012-09-07 09:51:00
5:51 AM,77.0,55.0,47,29.84,10.0,SSW,5.8,-,N/A,,Clear,200,2012-09-07 10:51:00
6:51 AM,73.4,55.4,53,29.93,10.0,South,6.9,-,N/A,,Clear,190,2012-09-07 11:51:00
7:51 AM,73.0,57.9,59,29.86,10.0,South,5.8,-,N/A,,Clear,190,2012-09-07 12:51:00
8:51 AM,80.1,62.1,54,29.87,10.0,South,8.1,-,N/A,,Clear,180,2012-09-07 13:51:00
9:51 AM,88.0,63.0,43,29.87,10.0,SSW,10.4,-,N/A,,Clear,210,2012-09-07 14:51:00
10:51 AM,93.0,62.1,36,29.87,10.0,South,11.5,-,N/A,,Clear,180,2012-09-07 15:51:00
11:51 AM,97.0,57.9,27,29.86,10.0,South,8.1,16.1,N/A,,Clear,190,2012-09-07 16:51:00
12:51 PM,100.0,54.0,21,29.83,10.0,South,9.2,16.1,N/A,,Clear,190,2012-09-07 17:51:00
1:51 PM,102.0,54.0,20,29.81,10.0,South,9.2,16.1,N/A,,Clear,170,2012-09-07 18:51:00
2:51 PM,102.9,52.0,18,29.79,10.0,SSW,9.2,-,N/A,,Partly Cloudy,200,2012-09-07 19:51:00
3:51 PM,102.0,51.1,18,29.77,10.0,Calm,Calm,-,N/A,,Partly Cloudy,0,2012-09-07 20:51:00
4:51 PM,102.9,50.0,17,29.74,10.0,Variable,6.9,-,N/A,,Partly Cloudy,0,2012-09-07 21:51:00
5:51 PM,102.9,50.0,17,29.73,10.0,SSW,4.6,-,N/A,,Clear,210,2012-09-07 22:51:00
6:51 PM,102.9,50.0,17,29.74,10.0,ENE,3.5,-,N/A,,Clear,70,2012-09-07 23:51:00
7:51 PM,99.0,52.0,21,29.75,10.0,NE,3.5,-,N/A,,Partly Cloudy,50,2012-09-08 00:51:00
8:51 PM,93.2,48.2,21,29.85,10.0,East,6.9,-,N/A,,Clear,80,2012-09-08 01:51:00
9:51 PM,89.6,50.0,26,29.87,10.0,SSE,5.8,-,N/A,,Clear,150,2012-09-08 02:51:00
10:51 PM,89.1,50.0,26,29.80,10.0,South,6.9,-,N/A,,Clear,190,2012-09-08 03:51:00
11:41 PM,86.0,53.6,33,29.96,10.0,North,28.8,42.6,N/A,,Mostly Cloudy,10,2012-09-08 04:41:00
11:51 PM,84.9,53.1,33,29.88,10.0,NNE,23.0,33.4,N/A,,Overcast,20,2012-09-08 04:51:00